GFSWCAN_2pvu_pres_108.txt.gz
Presure
158 156 175 161 176 169 183 161 183 179 176 203 167 172 174 206 189 202 201 209 182 209 207 128 123 125 131 125 131 170 139 142 174 210 207 196 205 202 197 212 208 189 168 199 199 200 187 196 211 141 162 189 190 197
161 144 155 167 170 174 178 193 143 181 191 196 158 205 176 177 165 178 183 185 193 213 200 217 126 133 129 130 124 130 137 135 140 139 157 233 225 218 214 206 205 199 200 196 178 183 194 203 185 207 181 208 214 207
175 168 162 161 142 177 168 159 189 164 182 162 183 192 171 162 185 165 188 177 205 199 200 211 160 119 113 266 126 210 131 138 133 218 150 191 164 243 244 239 240 241 182 214 229 223 224 219 195 185 186 217 173 188
160 169 181 153 175 160 142 169 177 182 177 185 184 178 175 178 177 180 208 189 177 200 213 231 181 236 183 252 117 196 239 176 185 168 178 128 220 227 235 235 240 231 242 241 135 240 238 234 225 223 198 215 197 213
156 167 140 153 148 160 170 145 181 184 192 183 174 175 196 181 173 165 205 173 200 183 202 196 195 171 190 208 179 288 134 215 132 188 215 192 132 140 173 208 222 208 220 230 231 246 242 243 127 241 240 235 232 231
160 151 135 131 135 180 135 168 156 176 189 172 195 190 188 182 190 178 209 218 179 182 195 175 213 202 202 230 227 229 282 213 167 136 193 128 214 201 138 142 199 206 209 200 200 211 215 132 232 226 244 232 237 237
143 185 133 175 163 171 172 168 180 167 155 168 170 191 185 189 170 196 177 197 202 176 214 220 175 198 225 210 237 223 230 227 283 186 241 128 133 148 144 214 212 202 201 203 208 208 210 210 205 224 236 212 211 233
153 173 153 169 173 171 166 172 171 182 159 174 170 181 176 185 179 194 199 196 199 208 178 168 192 207 223 215 191 223 237 234 294 270 255 172 228 220 149 156 179 219 197 209 202 220 210 214 219 207 217 209 217 217
166 174 146 173 161 165 186 170 141 174 183 165 185 169 178 179 180 165 173 195 176 200 205 169 175 217 221 184 228 185 228 249 233 284 310 264 235 178 167 141 208 152 218 215 156 212 225 227 212 204 216 223 227 206
136 165 184 181 183 174 185 151 178 173 194 184 173 187 179 182 180 184 198 184 195 210 209 224 168 226 207 222 174 196 236 261 233 197 290 307 298 266 141 241 247 238 209 204 182 227 195 204 209 199 201 213 216 131
191 196 190 174 175 172 161 184 159 159 173 168 173 179 178 184 189 176 190 169 194 205 178 225 174 227 207 207 212 182 207 235 239 257 239 251 351 295 292 252 159 238 241 222 214 210 187 185 201 157 130 131 212 210
201 187 190 182 158 176 173 182 194 187 120 166 175 179 188 188 183 187 192 178 190 196 215 175 206 170 197 209 196 222 220 250 231 187 238 204 171 266 289 329 287 196 183 245 184 174 213 214 174 203 218 189 220 221
194 178 196 211 190 154 150 186 174 184 193 173 172 174 185 186 177 184 188 189 196 191 194 225 167 198 199 183 175 208 206 223 264 198 262 191 268 227 245 355 418 309 270 244 177 242 236 160 137 216 192 209 215 197
181 212 209 160 211 197 197 179 189 184 184 160 193 190 186 178 179 177 190 189 173 196 210 212 223 216 193 209 175 221 229 204 194 183 253 189 257 280 210 261 328 372 324 263 164 179 203 207 229 230 171 212 179 209
219 236 211 212 188 196 208 210 190 193 198 187 198 200 189 188 182 192 192 190 194 202 208 215 219 172 206 199 196 230 185 214 232 257 178 229 245 251 193 204 261 291 332 390 338 266 206 163 243 245 226 228 214 135
217 237 207 203 224 202 217 205 214 204 196 202 190 188 188 185 189 196 192 190 190 203 199 211 213 180 166 208 221 227 184 178 213 237 229 253 249 233 251 258 203 202 191 316 354 382 172 252 251 210 246 241 236 211
210 221 237 212 214 229 241 221 223 216 205 174 200 194 190 202 197 191 198 188 192 205 203 201 219 224 167 222 200 218 157 217 185 225 258 258 214 236 224 252 252 322 188 312 186 325 371 168 240 164 209 248 168 176
243 230 244 228 237 243 243 220 231 228 210 197 201 204 207 206 182 195 204 196 205 205 211 223 205 170 175 216 174 258 226 228 203 240 261 228 218 241 208 238 242 297 338 322 299 311 326 364 190 161 230 191 264 251
274 267 245 229 257 238 233 225 224 218 218 221 210 214 191 202 199 202 209 216 217 217 218 197 219 191 214 222 209 226 255 212 172 260 198 240 226 259 227 241 229 301 313 314 303 293 304 324 356 324 171 265 253 244
232 312 258 240 230 266 252 232 235 234 231 236 221 203 200 197 207 192 199 202 212 218 223 226 224 203 244 233 218 256 243 240 212 253 259 241 256 182 232 256 248 299 315 304 295 289 297 317 319 345 314 321 289 261
301 287 255 236 223 224 245 218 226 249 239 231 236 222 206 211 218 206 210 224 228 229 221 218 229 243 202 232 211 227 256 191 247 253 239 255 178 244 243 236 286 294 331 325 321 313 312 319 330 338 329 303 321 303
285 288 256 245 242 280 247 247 248 243 241 247 243 224 210 218 213 225 228 220 225 220 211 218 230 247 234 222 238 248 237 247 241 245 167 241 184 234 266 278 283 314 334 461 452 443 423 345 321 329 328 315 298 301
371 296 288 199 200 242 226 255 243 234 261 250 240 232 237 230 220 229 222 222 225 216 223 234 260 250 237 201 200 204 226 217 264 255 162 196 246 261 281 285 310 364 492 466 449 442 397 340 307 321 317 312 301 291
309 351 279 264 266 247 249 235 235 232 225 238 241 243 217 227 234 220 220 224 251 221 164 227 249 249 247 235 250 234 234 162 266 247 270 253 258 277 286 312 471 491 468 295 434 376 354 314 303 318 313 305 302 290
342 341 330 346 297 285 283 242 244 279 230 228 244 242 240 236 208 238 220 218 224 234 242 251 224 223 183 246 232 243 217 234 263 263 228 270 281 289 315 344 484 471 313 440 409 352 318 311 314 313 316 302 300 333
349 357 348 284 306 321 305 281 253 277 270 243 245 223 226 246 249 260 234 235 130 104 204 227 210 255 249 251 189 252 265 254 261 269 267 292 298 313 330 465 450 440 424 393 396 372 338 313 313 312 303 329 317 336
356 353 335 327 319 289 265 288 295 262 258 254 249 245 217 213 217 234 238 247 248 246 241 249 267 258 214 210 254 266 272 258 258 268 285 294 300 316 448 426 422 180 407 391 390 369 306 315 308 300 295 290 297 331
325 291 302 304 310 306 309 243 241 244 243 239 249 232 239 239 239 257 165 276 270 254 237 219 256 249 256 255 273 261 255 261 279 294 292 290 310 429 424 409 406 395 387 383 316 304 304 307 312 304 366 277 320 325
323 302 256 310 300 294 298 279 188 261 234 268 265 276 211 214 259 263 231 241 256 272 252 270 272 267 259 274 270 268 271 281 293 302 284 299 419 405 392 387 382 391 380 344 310 315 325 327 379 365 362 353 329 322
285 294 299 268 267 279 264 237 243 264 253 250 239 258 258 251 261 261 195 193 264 195 223 178 259 275 279 272 269 279 276 296 279 294 293 404 395 386 379 365 379 368 379 383 375 360 397 382 363 350 348 342 334 323
279 280 286 282 271 268 265 267 264 250 256 265 260 255 254 252 202 253 253 191 160 233 277 286 277 268 274 283 280 287 296 289 283 297 396 390 379 369 360 361 351 370 378 368 355 360 307 291 351 341 339 331 326 318
279 272 267 265 266 266 264 262 261 261 254 253 255 261 262 217 251 249 264 271 273 276 281 273 275 282 283 285 292 295 274 291 304 405 389 372 372 386 351 351 364 428 305 288 369 345 315 300 353 342 330 324 315 320
259 257 259 260 258 260 255 250 246 252 261 258 241 253 254 263 261 246 266 270 277 275 277 284 283 286 286 288 264 285 326 394 385 379 373 368 364 373 360 345 325 355 379 382 357 339 325 356 351 342 329 325 325 315

GFSWCAN_2pvu_pres_111.txt.gz
Presure
163 146 157 170 164 151 154 176 157 179 183 169 181 185 172 194 166 167 190 177 169 203 191 119 144 161 136 129 185 201 169 136 224 237 240 245 245 247 230 202 199 197 198 193 192 201 188 200 214 167 186 214 168 204
164 131 174 157 151 170 178 177 165 149 159 177 169 177 183 170 190 167 166 180 174 172 193 154 202 126 116 119 137 247 168 133 133 139 138 231 237 238 247 251 249 245 234 223 146 204 193 200 203 187 188 215 199 203
174 177 161 164 177 153 166 156 159 173 177 155 177 174 185 185 186 200 178 195 191 211 191 179 186 171 147 213 117 132 117 119 227 154 133 142 142 202 220 234 237 230 253 251 245 241 234 230 230 205 181 202 172 172
181 176 147 129 157 188 163 166 142 164 179 179 160 180 174 188 177 192 175 180 182 175 175 189 174 176 174 185 150 121 227 120 183 128 179 207 222 135 193 205 187 216 219 219 141 247 255 224 245 235 152 231 226 190
124 178 157 126 172 160 164 173 165 172 145 163 173 181 173 177 192 170 185 167 174 205 213 209 180 180 202 220 196 193 170 232 276 304 265 256 241 169 149 161 221 219 212 211 213 213 216 214 190 252 170 247 242 238
152 148 182 160 155 175 179 164 160 157 178 156 177 166 173 181 182 183 186 186 194 187 212 187 188 216 173 170 182 210 194 208 233 264 278 313 132 248 179 237 132 141 182 224 218 215 212 209 212 212 209 207 252 248
178 174 128 178 165 146 149 170 163 179 136 170 172 180 181 164 173 167 189 173 189 179 195 197 192 209 180 205 201 219 199 204 193 187 248 259 235 315 227 208 218 171 192 129 166 189 216 205 214 215 217 217 228 211
162 145 171 175 169 149 173 181 142 160 148 173 175 169 184 180 175 178 188 184 185 180 192 196 193 198 172 190 200 217 219 207 187 207 211 226 237 229 255 309 281 192 242 183 130 132 172 211 225 217 210 224 219 210
141 173 169 183 177 176 185 183 179 155 190 167 170 178 167 174 185 162 184 181 182 172 176 191 195 192 193 197 184 173 190 194 211 239 187 234 229 250 248 264 267 189 297 243 176 239 211 131 211 203 230 208 196 200
190 154 187 182 181 181 193 172 177 185 184 165 151 178 178 174 198 183 184 193 191 189 189 188 189 189 191 192 203 175 185 185 175 178 218 183 216 224 204 240 233 188 274 352 300 258 250 242 241 231 212 212 135 210
194 190 189 135 184 163 166 178 166 154 145 159 180 175 194 190 193 172 189 168 190 181 190 197 188 198 193 200 195 198 177 172 169 178 225 186 185 241 215 209 228 195 261 192 271 351 359 271 179 244 239 179 208 195
199 209 166 179 192 165 191 169 177 161 195 191 187 179 182 183 179 186 186 187 180 181 183 190 190 198 195 198 189 213 220 186 204 195 175 219 179 227 222 217 239 214 214 223 136 277 300 263 157 229 219 244 240 236
165 202 197 203 161 200 206 196 194 196 169 162 165 190 202 186 163 184 177 177 188 194 190 182 179 193 190 200 210 208 207 203 173 191 183 194 198 223 212 228 225 254 260 232 214 244 242 268 210 378 403 178 260 247
194 215 176 200 196 215 196 205 161 202 185 201 161 154 194 193 184 177 194 181 178 191 202 188 178 188 198 207 188 211 197 201 187 212 228 184 214 222 229 250 185 221 207 258 240 266 172 261 220 209 216 198 331 274
229 228 226 178 220 215 221 179 184 204 209 210 189 190 206 180 188 189 197 175 203 188 198 181 179 190 186 200 197 205 206 214 202 233 174 193 228 184 215 207 219 215 250 238 228 267 232 237 250 288 332 185 335 374
259 227 222 219 223 221 232 239 230 223 199 218 223 189 198 176 174 199 207 180 204 199 194 187 189 194 208 206 185 216 214 205 226 233 204 168 201 214 180 209 262 215 240 231 235 261 265 256 240 249 253 193 202 314
255 244 218 214 222 229 225 227 215 222 224 190 237 198 211 240 214 212 210 205 186 181 139 175 198 192 202 193 215 218 200 218 209 210 218 206 182 224 194 219 236 211 245 178 256 250 262 261 246 212 269 270 225 310
342 269 283 251 259 284 250 242 237 223 223 252 216 214 252 234 228 222 207 199 191 212 209 219 209 206 185 212 214 198 216 215 219 178 227 218 230 154 232 211 188 244 208 258 257 261 261 257 241 209 248 286 157 315
347 337 247 347 303 254 224 231 255 237 230 262 260 267 240 243 227 228 229 225 210 220 190 224 207 207 188 205 208 216 205 208 222 217 218 208 215 226 253 243 240 249 231 257 257 257 272 257 187 249 264 299 316 345
404 428 405 281 265 307 286 255 256 262 265 254 260 218 247 259 232 222 214 211 221 233 245 226 218 198 195 226 199 208 206 211 215 203 228 215 218 233 256 245 248 255 245 219 261 263 243 204 192 249 299 312 446 424
445 406 499 408 362 266 286 284 292 311 285 272 245 233 257 257 213 218 223 224 218 239 185 216 208 215 212 213 222 231 215 209 213 230 244 203 221 228 239 259 233 250 229 259 248 178 269 242 254 311 314 461 449 433
457 416 486 321 396 341 336 329 254 301 323 305 251 252 264 222 230 240 236 230 246 260 228 232 217 216 224 213 225 214 224 210 211 231 214 226 238 242 196 223 250 258 253 268 187 265 239 278 315 334 488 465 447 411
439 420 465 414 387 377 329 316 295 307 323 268 267 259 254 232 230 229 249 273 259 234 240 219 226 230 217 229 226 192 226 237 238 240 221 235 233 211 244 252 254 258 248 265 273 257 267 308 328 490 472 205 414 411
434 369 443 396 383 226 388 296 302 295 295 288 293 277 285 277 241 263 233 237 236 213 214 249 254 240 240 234 228 232 241 231 239 243 218 232 228 258 207 253 169 183 269 290 248 267 299 318 491 463 447 422 392 397
402 413 348 386 378 369 385 402 365 325 317 315 320 272 262 256 280 269 259 231 145 229 234 103 97 247 240 226 236 248 235 248 244 241 225 219 253 246 158 252 281 272 268 265 260 301 321 476 454 420 421 404 381 384
406 415 419 388 387 386 381 399 380 352 340 320 311 308 302 289 280 256 255 248 236 94 139 235 244 234 233 235 237 240 235 239 222 216 229 249 240 241 271 278 273 284 263 260 308 320 397 443 430 410 402 392 371 309
397 412 416 465 490 389 384 381 368 345 346 307 316 308 207 294 237 226 224 166 174 168 239 233 229 225 229 234 216 238 200 246 253 247 225 225 267 283 275 277 262 275 259 307 314 314 437 418 409 397 378 365 379 334
398 414 427 464 472 447 343 382 391 379 350 337 275 276 255 238 227 239 275 236 228 227 234 242 244 236 240 222 234 250 274 234 202 246 275 276 252 273 283 254 286 260 307 306 310 419 407 399 393 384 367 315 302 295
421 422 431 418 414 454 391 375 364 376 325 331 324 326 293 267 245 246 247 247 266 125 257 238 256 257 228 247 249 250 239 208 247 266 265 256 269 273 277 271 261 298 304 302 396 385 388 392 377 368 366 309 304 319
408 406 471 445 420 423 400 359 357 341 278 340 248 340 311 293 297 258 254 290 268 270 271 262 262 264 251 242 202 243 212 200 263 267 258 264 264 245 275 280 306 295 330 400 387 377 368 391 379 379 352 401 385 356
465 435 401 392 380 355 348 341 330 339 259 321 320 311 290 277 292 290 265 281 274 278 259 249 261 259 257 263 273 280 277 260 259 277 265 277 275 305 293 311 300 401 400 391 370 373 389 380 360 392 350 379 362 312
369 391 391 376 349 323 337 346 340 333 321 315 304 295 288 278 278 277 281 252 270 278 270 263 261 277 249 248 257 264 262 279 251 287 253 292 281 290 307 308 403 382 376 393 365 364 349 363 378 295 288 368 368 351
363 373 364 344 334 324 271 308 310 305 298 293 292 289 279 278 274 270 275 275 269 259 261 264 248 255 271 263 265 279 265 266 270 288 282 279 309 301 363 390 383 366 373 374 363 400 392 346 309 307 324 362 317 336

GFSWCAN_2pvu_pres_114.txt.gz
Presure
190 157 136 139 129 139 166 173 163 154 146 171 180 176 169 182 182 181 187 198 186 183 190 184 117 186 113 149 149 133 171 186 135 130 224 222 224 241 236 235 237 242 229 228 224 193 202 202 210 199 203 210 206 223
157 183 130 157 179 144 175 169 146 154 139 168 172 174 171 170 177 177 179 189 187 169 203 197 185 179 165 173 225 128 140 131 119 120 132 133 138 225 207 224 227 234 230 237 241 234 242 229 187 195 196 192 193 197
148 143 169 165 150 170 141 156 177 171 180 129 166 179 168 174 176 182 175 182 187 186 186 163 192 183 193 175 172 205 197 123 126 132 119 170 178 129 133 136 201 183 189 221 226 228 229 244 243 240 236 234 236 211
166 176 179 181 190 178 157 156 162 175 160 177 186 171 169 165 177 179 179 180 181 179 189 191 179 171 197 172 174 185 201 178 131 198 199 137 121 123 201 238 194 135 184 216 214 210 215 219 220 196 241 196 171 235
155 171 185 162 149 179 165 173 150 146 182 152 170 170 165 175 172 182 161 183 172 163 179 181 192 189 197 176 172 178 205 197 188 195 196 219 174 221 269 269 133 265 172 130 136 220 164 221 215 212 212 211 212 225
153 160 138 181 192 142 170 140 153 189 167 181 156 152 171 174 168 178 177 176 189 193 190 175 183 202 172 206 209 199 173 170 166 205 191 220 232 221 221 246 131 127 200 139 250 243 139 131 138 144 217 217 223 211
181 187 183 175 166 172 163 147 165 183 156 171 147 185 176 134 180 166 167 180 180 171 187 182 186 196 196 192 202 181 191 208 201 178 178 198 190 187 226 215 200 241 219 254 288 265 173 225 245 156 136 141 140 214
191 153 179 173 180 151 170 164 126 185 187 159 170 148 141 164 177 193 174 176 184 171 175 181 176 198 192 188 191 217 201 200 214 214 207 199 192 203 200 234 177 218 230 228 204 275 298 285 253 230 253 248 188 228
199 205 183 184 166 186 166 175 171 187 161 180 184 171 133 187 179 188 179 179 183 188 170 179 190 198 188 182 182 197 203 203 198 195 209 180 185 218 187 188 215 206 176 230 225 216 189 259 193 291 276 261 250 223
196 196 184 190 191 176 130 172 142 169 152 149 166 147 184 167 183 190 163 172 185 183 174 165 186 202 173 198 212 188 201 183 210 204 199 200 203 178 204 221 187 194 177 173 232 181 226 251 222 259 191 260 332 271
214 207 191 198 160 198 152 163 181 186 185 184 182 190 157 179 181 187 172 185 189 181 182 173 180 198 192 189 179 192 197 197 205 182 197 202 212 203 178 192 192 222 189 212 214 255 224 222 183 277 256 256 264 162
234 222 194 212 194 185 189 191 159 194 191 158 175 173 183 191 167 172 180 176 191 182 190 172 186 202 182 181 186 193 189 198 180 194 190 200 230 200 209 205 207 181 211 204 218 237 244 198 180 218 224 235 281 270
216 262 236 231 235 233 210 228 207 217 197 198 177 171 202 217 179 189 183 180 151 172 190 192 188 203 182 176 190 181 176 196 203 182 200 214 219 225 208 234 204 214 190 191 191 193 226 218 242 263 267 228 258 254
234 238 199 234 235 226 225 210 160 220 168 200 171 168 204 178 176 194 181 190 136 140 206 183 159 208 167 180 189 198 200 205 185 200 191 208 199 188 200 227 210 217 224 208 179 220 238 206 255 220 257 112 131 268
255 240 224 203 211 212 207 202 208 199 211 214 215 203 209 181 191 201 199 200 200 202 213 197 198 200 182 197 193 191 188 203 203 176 213 228 197 186 205 212 200 216 195 224 207 227 215 236 221 246 244 248 253 238
286 281 252 239 254 243 217 233 243 223 219 217 206 232 231 228 211 196 182 184 216 218 206 212 174 213 222 190 186 193 202 200 206 198 209 218 229 193 201 190 217 208 222 216 214 216 220 221 228 220 245 252 251 265
312 375 280 270 257 229 261 272 243 220 255 262 255 260 252 239 215 228 227 218 208 189 213 199 217 230 175 186 208 221 218 190 95 207 216 208 212 200 205 205 204 211 219 230 215 232 228 232 237 256 246 252 255 253
391 361 361 393 334 257 282 277 231 300 248 233 242 248 238 245 245 237 222 223 222 219 221 227 250 111 217 217 219 206 186 229 203 219 207 222 224 216 191 201 228 230 220 212 219 230 225 236 249 232 256 244 255 258
348 349 356 321 365 352 301 273 299 270 248 243 255 203 235 222 236 241 252 233 221 214 231 213 225 149 222 190 197 235 223 212 214 209 201 203 228 221 203 207 212 219 219 209 228 215 248 241 229 241 266 244 257 276
314 331 345 343 362 346 345 318 362 280 275 274 251 257 239 223 229 259 235 242 236 249 268 229 220 229 229 239 221 252 241 208 224 214 212 219 238 228 227 213 222 204 223 225 216 225 238 239 235 198 240 265 278 209
306 312 312 327 338 357 397 374 296 351 325 307 313 310 305 266 239 243 272 214 238 273 205 238 215 152 225 222 258 243 241 212 229 225 219 249 231 228 202 215 215 220 222 225 233 238 225 250 240 247 259 210 259 266
327 297 311 313 312 329 345 391 325 357 400 382 412 303 300 298 265 279 297 327 286 297 257 257 227 212 270 252 237 250 248 234 222 228 221 249 236 212 219 222 224 230 228 247 245 229 239 254 275 208 270 267 251 262
324 341 366 311 294 322 324 380 361 360 418 356 338 325 363 357 290 278 287 309 261 219 260 230 226 266 184 229 261 231 255 237 229 242 246 240 216 221 223 231 248 243 242 234 246 241 245 248 229 263 263 251 261 273
384 382 391 307 318 334 387 387 367 406 419 424 375 362 363 364 370 259 342 302 310 283 271 246 271 135 256 262 228 216 232 225 260 242 231 204 209 250 250 242 240 236 243 252 161 224 220 246 265 263 250 271 275 293
379 389 381 401 402 398 407 417 280 344 384 422 426 405 395 401 361 371 354 322 306 264 265 279 278 253 237 175 250 223 229 226 246 245 234 217 242 240 227 248 151 236 246 251 195 226 250 263 271 278 268 264 284 344
376 385 391 401 406 408 413 423 436 479 427 406 406 402 369 83 372 308 292 258 301 231 281 282 90 88 240 233 225 228 232 260 256 228 222 239 238 235 242 222 243 232 234 241 246 251 284 271 271 251 261 296 332 441
389 388 398 406 412 418 416 427 424 393 439 410 401 391 393 388 411 204 360 309 298 245 298 293 187 261 243 247 267 235 247 246 254 246 242 240 241 241 252 242 243 251 248 260 268 270 255 271 261 259 279 313 387 418
390 389 384 394 405 417 404 431 414 445 413 360 388 383 378 383 384 319 366 268 283 304 309 283 255 266 281 206 245 238 258 256 248 241 247 237 227 232 244 237 258 239 264 253 263 240 269 248 264 279 308 307 402 404
380 378 383 400 410 412 416 423 404 448 414 388 386 382 385 384 375 375 369 349 303 321 308 281 279 259 250 242 266 268 261 255 233 252 240 222 232 214 252 197 247 269 259 241 229 275 244 261 289 328 381 403 383 382
387 386 384 399 415 419 412 409 404 426 407 388 385 383 382 385 383 390 384 377 366 317 298 296 301 293 291 288 279 232 235 249 247 223 233 224 250 233 249 257 269 278 273 278 271 256 262 304 295 345 417 391 376 364
385 388 397 393 403 398 396 397 396 442 422 379 377 382 381 375 376 367 374 363 348 321 285 312 306 265 255 244 235 241 241 230 232 243 259 259 255 262 275 252 267 262 264 270 255 270 289 306 384 406 394 371 398 371
367 374 375 393 394 396 403 421 435 438 422 419 414 405 393 366 352 369 380 352 341 338 338 268 258 256 280 275 250 251 261 281 241 233 242 269 267 250 276 258 281 239 250 263 292 311 308 396 391 386 410 440 360 385
384 378 381 415 447 418 408 400 352 391 390 376 357 364 360 348 344 340 274 338 325 309 313 322 308 298 286 285 287 286 273 238 277 264 249 263 268 273 280 243 272 260 287 300 306 400 389 383 376 375 406 372 359 334

GFSWCAN_2pvu_pres_117.txt.gz
Presure
175 166 124 164 166 148 142 180 132 163 176 143 163 167 175 180 173 180 189 177 180 180 185 182 199 199 156 198 172 120 221 196 177 184 134 137 134 139 142 142 210 213 229 237 232 243 236 234 163 197 201 205 164 203
165 121 165 151 186 152 175 135 179 140 167 182 185 130 181 181 175 186 165 171 179 176 184 174 190 193 171 190 188 181 180 175 141 122 130 129 125 129 134 135 141 139 140 200 212 222 231 229 231 235 247 250 241 210
165 160 151 158 139 169 169 163 166 166 141 178 164 168 172 129 173 178 178 171 186 176 166 182 181 183 189 199 184 186 166 203 169 176 187 143 134 132 132 124 128 133 200 186 139 136 227 220 215 221 226 227 228 239
160 169 165 160 172 152 165 184 165 169 150 148 157 175 158 169 166 154 163 189 174 188 183 179 190 179 195 183 198 189 208 172 194 206 166 187 185 153 217 217 196 132 192 244 175 276 264 254 139 140 185 215 193 220
173 159 169 171 143 169 154 123 171 181 176 152 167 161 151 156 163 177 152 183 161 172 177 178 180 181 185 189 182 194 194 180 179 208 212 206 181 186 191 205 199 221 196 236 246 133 217 264 268 227 170 246 232 170
180 163 186 151 147 152 169 177 152 168 174 153 179 133 173 176 168 140 177 184 161 189 169 173 173 189 197 179 198 183 199 179 203 211 220 184 221 199 238 190 173 245 217 222 219 243 253 243 208 274 216 171 168 252
168 178 175 178 167 169 153 164 178 128 163 187 158 142 176 166 159 189 178 157 139 188 181 176 174 186 177 180 179 189 191 200 197 191 202 190 177 213 220 238 218 178 239 197 183 196 207 242 242 243 232 264 258 273
188 189 185 189 181 177 185 181 176 167 182 159 160 172 171 177 162 164 137 153 176 187 182 181 176 182 171 192 179 188 191 194 178 197 208 201 209 197 207 197 187 211 191 212 202 187 211 179 228 231 245 235 225 160
167 171 200 203 203 207 145 197 162 193 188 180 185 201 160 177 168 159 158 159 141 178 179 165 176 179 185 179 177 186 194 188 193 177 195 211 206 202 190 213 196 187 187 221 178 212 227 175 230 202 224 215 248 176
202 202 216 208 206 201 190 163 190 166 161 176 186 203 179 175 190 160 163 158 171 172 169 167 187 179 188 179 180 176 186 189 184 168 189 200 193 207 224 208 207 187 218 216 206 163 176 236 195 210 223 232 249 200
204 238 197 212 222 222 237 222 215 209 204 181 174 189 197 195 182 166 188 177 165 160 155 163 162 193 168 177 180 185 192 188 187 176 196 200 204 194 175 219 208 196 200 184 215 213 219 226 199 190 227 194 227 184
226 231 242 237 226 246 260 241 230 215 219 199 203 192 172 213 178 199 189 187 174 183 177 133 177 186 178 173 183 193 179 182 172 182 202 199 197 203 204 200 211 200 199 202 192 233 212 219 226 204 189 200 232 209
238 290 208 218 232 219 264 213 232 249 220 203 218 195 170 177 195 191 188 170 175 152 190 189 205 182 184 180 199 212 188 186 181 187 207 184 188 189 203 187 191 209 194 176 207 236 216 207 224 222 226 204 221 192
321 285 272 254 235 218 240 202 239 243 229 217 228 179 197 221 211 240 211 170 205 190 179 174 158 199 160 186 159 203 203 200 200 187 196 179 194 205 212 190 200 203 207 199 216 212 225 228 197 209 225 213 194 198
328 334 278 282 258 231 218 225 230 207 172 202 225 248 220 249 225 226 225 236 180 182 206 219 228 218 192 191 190 188 198 204 198 188 180 210 203 222 206 190 188 204 212 204 203 214 222 227 216 210 221 219 202 228
295 308 364 295 281 272 249 241 243 245 223 240 222 224 232 237 242 223 224 248 250 255 246 239 226 232 226 189 200 187 193 212 190 190 209 215 202 217 222 181 190 228 231 224 195 211 232 224 209 220 218 227 217 222
356 371 294 362 310 337 268 277 274 270 255 276 237 245 219 156 249 272 227 242 251 255 216 221 226 175 229 209 206 107 223 204 188 99 209 225 199 217 223 190 210 215 225 204 204 215 205 223 233 230 217 220 220 219
342 342 337 348 361 358 357 303 362 347 339 321 268 254 239 199 226 227 201 187 209 219 213 193 238 196 152 203 231 239 229 225 218 226 221 209 208 227 230 248 220 215 219 220 218 215 202 246 239 215 221 224 223 227
317 317 325 330 338 341 356 361 360 340 365 375 335 328 316 266 246 248 240 238 236 268 245 242 227 241 186 102 165 240 223 234 238 237 231 218 213 248 222 236 212 230 233 220 207 228 210 250 236 229 211 228 219 233
310 303 313 317 322 329 331 352 357 351 362 371 369 368 306 285 265 262 264 244 246 255 257 234 214 173 205 209 238 227 226 231 241 234 227 225 224 230 264 234 190 215 236 231 235 212 214 248 229 218 231 222 226 232
413 394 302 316 311 316 330 330 337 335 349 370 303 360 344 318 332 314 287 282 296 253 188 251 259 224 151 201 245 228 228 234 247 259 231 215 232 215 215 210 228 257 226 233 230 231 235 247 250 245 232 241 231 259
412 406 399 386 323 312 321 323 325 324 330 347 350 364 378 407 401 328 277 278 252 265 205 299 257 92 270 255 223 227 215 235 230 215 217 252 257 228 147 219 260 243 260 243 250 225 242 248 230 253 220 236 239 242
401 399 396 393 395 373 305 311 318 261 324 333 341 340 364 407 384 369 254 420 328 287 340 263 259 240 280 227 168 232 220 220 241 224 210 240 252 270 219 227 207 248 231 249 225 227 241 242 239 223 239 250 230 264
393 393 390 389 399 408 412 302 308 310 321 318 324 327 341 352 365 429 365 277 416 388 339 271 269 255 247 184 210 246 268 228 227 289 261 264 265 267 222 265 254 236 240 258 226 233 254 246 251 234 250 192 257 229
379 386 398 408 402 407 409 413 228 415 94 296 310 317 322 332 345 357 390 463 440 391 366 343 327 302 301 283 103 117 268 259 254 244 266 254 278 228 250 263 248 238 256 228 225 257 242 247 228 237 231 204 248 250
380 388 400 401 398 395 400 401 403 402 400 394 299 304 248 320 328 341 359 426 421 396 104 362 351 342 102 142 277 285 263 265 270 271 258 226 257 248 260 250 242 240 233 233 240 255 244 253 248 244 245 235 265 261
385 391 395 390 385 383 387 387 385 389 401 416 415 417 378 275 317 347 315 426 431 398 376 375 380 353 367 135 83 197 267 262 285 262 258 253 262 262 259 246 244 237 246 241 247 253 251 245 253 215 227 249 261 284
382 378 372 367 371 376 385 392 398 402 406 413 420 414 403 428 409 418 384 223 405 411 404 388 339 408 415 350 328 275 271 289 272 272 258 254 263 261 254 261 255 253 253 251 267 255 220 260 207 254 250 283 281 256
366 362 369 379 385 387 391 394 394 396 406 397 409 406 389 395 462 432 393 377 372 327 370 380 376 381 348 391 393 304 281 281 274 268 254 279 272 268 259 260 264 252 251 254 261 201 234 205 232 251 280 253 251 265
373 377 378 378 383 384 385 376 380 382 392 406 407 417 456 382 422 380 380 369 196 352 362 362 358 360 359 329 356 290 268 262 279 259 278 288 274 272 272 274 253 254 272 209 235 224 244 225 263 280 276 251 273 270
362 367 373 374 375 371 372 379 384 392 402 415 410 446 383 436 419 408 387 364 362 362 363 362 352 342 338 331 346 338 304 287 285 280 288 291 284 280 264 264 273 258 283 231 198 253 235 279 276 278 270 270 267 284
368 375 374 375 375 368 371 389 401 397 403 410 411 404 387 434 403 375 363 366 368 378 369 371 373 324 333 322 315 322 305 273 281 287 296 297 293 288 299 224 247 262 226 250 253 261 289 276 282 278 262 272 296 293
377 385 376 378 383 378 382 390 397 401 403 403 407 421 432 438 413 383 375 382 376 373 364 350 335 337 322 328 321 343 329 327 319 316 324 317 311 289 264 290 288 241 244 283 272 278 272 252 278 264 277 291 332 372